Cleveland, OH

9:59 PM EST on February 24, 2017 (GMT -0500)
Burke Lakefront

Weather History for KBKL - October, 2012

Change the Weather History Date:

Sunday, October 7, 2012

  Actual Average Record
Temperature  
Mean Temperature 44 °F -  
Max Temperature 48 °F 64 °F 81 °F (2007)
Min Temperature 42 °F 50 °F 36 °F (2000)
Degree Days  
Heating Degree Days 21    
Moisture  
Dew Point 40 °F    
Average Humidity 80    
Maximum Humidity 93    
Minimum Humidity 68    
Precipitation  
Precipitation 0.62 in - - ()
Sea Level Pressure  
Sea Level Pressure 30.10 in    
Wind  
Wind Speed 8 mph (SW)    
Max Wind Speed 14 mph    
Max Gust Speed 20 mph    
Visibility 8 miles    
Events Rain    
Averages and records for this station are not official NWS values.
T = Trace of Precipitation, MM = Missing Value Source: NWS Daily Summary

Daily Weather History Graph

Daily Weather History Graph

Search for Another Location

Airport or City:

Trip Planner

Search our weather history database for the weather conditions in past years. The results will help you decide how hot, cold, wet, or windy it might be!

Date:

Astronomy

Oct. 07, 2012 Rise Set
Actual Time 7:30 AM EDT 6:57 PM EDT
Civil Twilight 7:02 AM EDT 7:25 PM EDT
Nautical Twilight 6:30 AM EDT 7:57 PM EDT
Astronomical Twilight 5:58 AM EDT 8:29 PM EDT
Moon No Moon Rise 2:09 PM EDT (10/7)
Length of Visible Light 12h 22m
Length of Day
11h 27m
Waning Gibbous, 56% of the Moon is Illuminated
Oct 7
Waning Gibbous
Oct 8
Last Quarter
Oct 15
New
Oct 21
First Quarter
Oct 29
Full

Hourly Weather History & Observations

Time (EDT) Temp. Windchill Dew Point Humidity Pressure Visibility Wind Dir Wind Speed Gust Speed Precip Events Conditions
12:53 AM 46.9 °F - 39.0 °F 74% 30.09 in 10.0 mi WSW 11.5 mph - 0.00 in   Overcast
1:53 AM 46.0 °F 41.9 °F 39.9 °F 79% 30.09 in 10.0 mi SSW 8.1 mph - 0.00 in   Overcast
2:53 AM 46.9 °F - 41.0 °F 80% 30.09 in 10.0 mi West 13.8 mph - 0.00 in Rain Light Rain
3:04 AM 46.4 °F 40.7 °F 41.0 °F 81% 30.08 in 10.0 mi West 12.7 mph 18.4 mph 0.00 in Rain Light Rain
3:53 AM 46.0 °F 43.1 °F 42.1 °F 86% 30.07 in 10.0 mi SW 5.8 mph - 0.02 in Rain Light Rain
4:12 AM 46.4 °F 42.9 °F 39.2 °F 76% 30.06 in 10.0 mi WSW 6.9 mph - 0.00 in   Overcast
4:25 AM 46.4 °F 42.4 °F 42.8 °F 87% 30.06 in 8.0 mi West 8.1 mph - 0.00 in Rain Light Rain
4:53 AM 46.0 °F 43.1 °F 41.0 °F 83% 30.07 in 8.0 mi West 5.8 mph - 0.01 in Rain Light Rain
5:48 AM 46.4 °F 42.9 °F 42.8 °F 87% 30.05 in 10.0 mi WSW 6.9 mph - 0.00 in   Overcast
5:53 AM 46.0 °F - 42.1 °F 86% 30.06 in 10.0 mi Calm Calm - 0.00 in   Overcast
6:27 AM 46.4 °F 42.4 °F 41.0 °F 81% 30.06 in 10.0 mi NW 8.1 mph - N/A   Overcast
6:53 AM 46.0 °F - 41.0 °F 83% 30.07 in 10.0 mi Calm Calm - N/A   Overcast
7:21 AM 44.6 °F 39.2 °F 41.0 °F 87% 30.07 in 5.0 mi SW 10.4 mph - 0.01 in Rain Light Rain
7:53 AM 45.0 °F 43.5 °F 42.1 °F 90% 30.08 in 10.0 mi Variable 3.5 mph - 0.02 in   Overcast
8:19 AM 44.6 °F 43.1 °F 42.8 °F 93% 30.08 in 10.0 mi South 3.5 mph - N/A   Overcast
8:53 AM 45.0 °F 41.2 °F 41.0 °F 86% 30.09 in 10.0 mi SW 6.9 mph - N/A   Overcast
9:53 AM 46.0 °F 40.6 °F 41.0 °F 83% 30.10 in 10.0 mi WSW 11.5 mph - N/A   Overcast
10:22 AM 44.6 °F 38.1 °F 39.2 °F 81% 30.09 in 10.0 mi NNW 13.8 mph - 0.00 in Rain Light Rain
10:30 AM 44.6 °F 39.7 °F 41.0 °F 87% 30.10 in 10.0 mi North 9.2 mph - 0.00 in Rain Light Rain
10:53 AM 46.0 °F - 39.0 °F 76% 30.11 in 10.0 mi Calm Calm - 0.00 in   Overcast
11:45 AM 46.4 °F 42.4 °F 39.2 °F 76% 30.10 in 5.0 mi WSW 8.1 mph - 0.02 in Rain Rain
11:53 AM 45.0 °F 38.9 °F 39.9 °F 82% 30.12 in 3.0 mi NW 12.7 mph 19.6 mph 0.04 in Rain Rain
12:04 PM 44.6 °F - 37.4 °F 76% 30.10 in 1.8 mi Calm Calm - 0.06 in Rain Heavy Rain
12:15 PM 44.6 °F - 39.2 °F 81% 30.11 in 3.0 mi Calm Calm - 0.08 in Rain Rain
12:31 PM 44.6 °F 43.1 °F 39.2 °F 81% 30.11 in 1.8 mi Variable 3.5 mph - 0.16 in Rain Heavy Rain
12:42 PM 44.6 °F - 37.4 °F 76% 30.12 in 3.0 mi Calm Calm - 0.19 in Rain Light Rain
12:53 PM 44.1 °F 39.5 °F 37.9 °F 79% 30.13 in 2.5 mi NW 8.1 mph - 0.22 in Rain Rain
1:53 PM 43.0 °F 38.2 °F 37.0 °F 80% 30.13 in 2.0 mi WSW 8.1 mph - 0.17 in Rain Rain
2:00 PM 42.8 °F 39.3 °F 37.4 °F 81% 30.12 in 4.0 mi WSW 5.8 mph - 0.02 in Rain Rain
2:53 PM 43.0 °F 36.8 °F 39.0 °F 86% 30.12 in 6.0 mi SSW 11.5 mph - 0.11 in Rain Light Rain
3:31 PM 44.6 °F 38.1 °F 39.2 °F 81% 30.11 in 10.0 mi SW 13.8 mph - 0.02 in Rain Light Rain
3:53 PM 44.1 °F 39.5 °F 37.9 °F 79% 30.12 in 10.0 mi SSW 8.1 mph - 0.02 in Rain Light Rain
4:53 PM 46.0 °F 41.0 °F 39.0 °F 76% 30.12 in 10.0 mi SW 10.4 mph - 0.00 in   Overcast
5:53 PM 46.0 °F 43.9 °F 39.0 °F 76% 30.12 in 10.0 mi South 4.6 mph - N/A   Overcast
6:53 PM 46.0 °F 43.9 °F 39.0 °F 76% 30.12 in 10.0 mi South 4.6 mph - N/A   Partly Cloudy
7:53 PM 46.0 °F 41.0 °F 37.9 °F 73% 30.12 in 10.0 mi South 10.4 mph - N/A   Overcast
8:53 PM 45.0 °F 39.7 °F 37.9 °F 76% 30.14 in 10.0 mi South 10.4 mph - N/A   Overcast
9:53 PM 45.0 °F 40.1 °F 37.9 °F 76% 30.14 in 10.0 mi South 9.2 mph - N/A   Overcast
10:53 PM 45.0 °F 38.9 °F 37.0 °F 74% 30.14 in 10.0 mi South 12.7 mph - N/A   Scattered Clouds
11:53 PM 45.0 °F 38.9 °F 35.1 °F 68% 30.15 in 10.0 mi SW 12.7 mph - 0.01 in   Clear